Location: Oulou
(10.7667°N, 12.5167°W)
Time: 14:33:18
(UTC+00:00)

Daily predictions for brighter satellites

Satellite Brightness Start Highest point End
(mag) Time Altitude Azimuth Time Altitude Azimuth Time Altitude Azimuth
Cosmos 2084 Rocket 3.5 18:58:58 10° SSW 19:03:21 73° ESE 19:07:46 10° NNE
Cosmos 1709 Rocket 4.2 19:00:51 10° N 19:07:12 84° W 19:13:35 10° S
Cosmos 1441 Rocket 3.3 19:03:38 10° S 19:07:26 52° E 19:11:09 10° NNE
Sylda 5 3.2 19:02:45 10° W 19:07:53 37° S 19:11:01 10° ESE
ARIANE 5 DEB (SYLDA) 4.4 18:59:34 10° W 19:08:40 50° SSW 19:12:21 10° ESE
GPS 2-15 Rocket1 3.5 19:05:07 10° SW 19:09:37 50° SSE 19:14:09 10° E
CSL-04 Rocket 4.3 19:04:59 10° SE 19:09:49 34° ENE 19:14:43 10° NNE
Cosmos 1371 Rocket 4.2 19:10:44 10° S 19:15:47 49° E 19:20:52 10° NNE
Okean-O 3.9 19:13:41 10° S 19:17:54 46° WSW 19:22:08 10° NNW
Cosmos 1975 Rocket 4.3 19:13:49 10° NNW 19:18:04 47° W 19:22:17 10° SSW
Envisat 2.9 19:15:27 10° SSE 19:20:31 77° ENE 19:25:35 10° N
Genesis I 3.3 19:19:15 10° N 19:22:57 50° ENE 19:26:35 10° SE
Cosmos 2333 Rocket 3.9 19:20:49 10° NE 19:23:14 13° ENE 19:24:32 12° E
FengYun 1-2 T 4.2 19:20:05 10° SSE 19:25:37 66° ENE 19:31:12 10° N
CZ-3 Stage 3 2.6 19:15:30 10° WSW 19:25:54 56° NW 19:28:54 10° NE
Okean 1 Rocket 2.9 19:23:12 10° S 19:27:30 78° E 19:31:49 10° N
Cosmos 1378 3.3 19:24:36 10° N 19:28:13 48° E 19:31:49 10° SSE
Cosmos 405 2.9 19:25:57 10° N 19:29:25 86° W 19:32:52 10° S
Cosmos 2074 Rocket 4.1 19:24:32 10° N 19:30:31 51° E 19:36:29 10° SSE
Okean 2 4.4 19:32:24 10° NNW 19:36:23 49° W 19:40:23 10° SSW
CZ-4 R/B 1.6 19:35:42 10° S 19:39:31 68° W 19:43:21 10° NNW
SL-4 R/B 2.7 19:40:39 10° S 19:44:18 31° SE 19:45:11 27° E
CZ-2C R/B 3.7 19:41:21 10° NNE 19:45:38 52° ESE 19:49:58 10° S
Cosmos 2322 Rocket 4.1 19:40:46 10° NW 19:45:40 32° WSW 19:50:35 10° SSW
Lacrosse 4 Rocket 3.2 19:43:15 10° NW 19:46:51 31° WSW 19:50:29 10° S
Cosmos 2251 Rocket 3.5 19:46:54 10° N 19:52:10 60° ENE 19:57:24 10° SSE
NOAA 11 4.4 19:47:14 10° SSE 19:52:27 45° ENE 19:57:39 10° N
Lacrosse 5 2.2 19:50:24 10° S 19:55:13 44° ESE 19:57:12 29° ENE
Cosmos 2082 3.7 19:49:40 10° S 19:55:16 58° ESE 20:00:52 10° NNE
Cosmos 2154 Rocket 4.2 19:50:10 10° NNE 19:56:05 46° E 20:02:02 10° SSE
YAOGAN 1 3.1 19:52:11 10° S 19:56:26 60° WSW 20:00:41 10° NNW
Cosmos 1025 Rocket 3.0 19:54:54 10° N 19:59:09 80° W 20:03:25 10° S
CZ-2D R/B 3.1 19:55:53 11° SSE 19:59:26 68° ENE 20:03:11 10° N
Cosmos 2219 Rocket 2.8 19:56:51 10° N 20:01:49 32° ENE 20:01:55 32° ENE
Cosmos 2333 4.2 19:56:46 10° N 20:02:21 56° ENE 20:05:58 22° SE
Ariane Rocket 3.0 19:57:54 10° SSE 20:02:50 57° ENE 20:07:46 10° N
GP-B 3.8 20:01:32 10° N 20:05:51 55° W 20:10:12 10° SSW
GPS 2-04 Rocket1 2.8 20:02:27 10° WSW 20:06:07 64° NW 20:07:06 44° NNE
Cosmos 1939 Rocket 2.6 20:08:25 38° SSE 20:09:51 81° ENE 20:13:41 10° N
Cosmos 2184 Rocket 4.4 20:04:45 10° NNW 20:10:58 66° W 20:17:15 10° S
Cosmos 2227 Rocket 3.1 20:06:05 10° SSW 20:11:31 50° WNW 20:16:58 10° N
Cosmos 2322 3.7 20:08:24 10° NNW 20:14:06 82° WSW 20:19:43 10° SSE
COSMOS 2428 2.9 20:08:44 10° N 20:14:08 46° ENE 20:14:17 46° ENE
Cosmos 2360 Rocket 3.5 20:09:47 10° NW 20:15:00 40° WSW 20:20:14 10° S
Cosmos 1420 Rocket 3.8 20:14:21 10° S 20:19:35 76° ESE 20:24:52 10° NNE
Cosmos 2297 Rocket 3.7 20:16:57 10° SW 20:22:04 35° WNW 20:27:12 10° N
CZ-3 Stage 3 3.3 20:18:09 10° WSW 20:22:32 33° NW 20:22:32 33° NW
COSMOS 2455 2.8 20:17:16 10° NNW 20:23:16 87° WSW 20:26:23 30° SSE
Aureole 1 Rocket 4.4 20:20:54 10° NNW 20:22:19 22° NNW 20:22:19 22° NNW
Cosmos 405 Rocket 4.0 20:24:31 10° SSW 20:27:58 38° W 20:31:23 10° NNW
SWIFT 4.3 20:33:38 10° WSW 20:36:27 22° SW 20:36:27 22° SW
Cosmos 962 Rocket 4.4 20:35:16 10° N 20:41:18 75° NE 20:41:18 75° NE
ADEOS Rocket 3.5 20:35:29 10° NNE 20:43:15 86° WNW 20:50:57 10° SSW
Cosmos 1295 Rocket 4.3 20:38:13 10° N 20:44:18 84° W 20:45:17 65° S
Centaur D-1A AC-31 3.2 20:47:58 10° SW 20:49:40 20° SW 20:49:40 20° SW
CZ-3B R/B 3.7 20:41:09 10° SW 20:58:22 48° SSE 20:59:05 47° SSE
Cosmos 2333 Rocket 3.2 21:01:58 10° NNW 21:06:38 44° W 21:06:38 44° W
ATLAS 2AS CENTAUR R/B 3.5 21:03:55 10° NNW 21:08:24 42° NNW 21:08:24 42° NNW
BLOCK DM-SL R/B 4.4 14:49:18 10° W 21:31:52 53° SSW 21:32:52 52° S
